Location: *
(32.8667°N, 13.1833°E)
Time: 20:29:59
(UTC+00:00)

Cosmos 2278 Rocket - Pass Details

Date: 18 July 2019
Orbit: 840 x 847 km, 71.0° (Epoch: 24 August)

Event Time Altitude Azimuth Distance (km) Brightness Sun altitude
Rises 23:23:39 0° 327° (NNW) 3,407 6.0 -36.1°
Reaches altitude 10° 23:26:19 10° 318° (NW) 2,469 5.0 -36.1°
Enters shadow 23:28:10 19° 305° (NW) 1,907 4.3 -36.1°
